Location: Andiroba
(19.8650°S, 43.9258°W)
Time: 00:10:19
(UTC+00:00)

SL-4 R/B - Pass Details

Date: 15 June 2024
Orbit: 411 x 596 km, 51.6° (Epoch: 24 July)

Event Time Altitude Azimuth Distance (km) Brightness Sun altitude
Exits shadow 08:41:22 15° 253° (WSW) 1,589 3.7 -11.0°
Maximum altitude 08:43:00 18° 225° (SW) 1,433 3.6 -10.6°
Drops below altitude 10° 08:45:58 10° 181° (S) 1,861 4.5 -10.0°
Sets 08:48:46 0° 162° (SSE) 2,722 5.5 -9.4°
